This demonstration page uses our WeatherBlox Daily Observations layout. Learn more.

41.55636, -103.73856

Hourly Observations for August 11, 2019

Temp ( °F °C ) Dew Point ( °F °C ) Humidity (%) Winds ( mph kmh ) Pressure ( in mb ) Visibility ( mi km ) Precip ( " mm )
12:56 am 00:56 Mostly Cloudy 82 27.5 52 10.9 36 36 SE 7 11 29.89 1012 10 16.0934 0 0
1:56 am 01:56 Clear 73 23 60 15.6 63 63 ESE 10 17 29.91 1013 10 16.0934 0 0
2:56 am 02:56 Mostly Clear 71 21.6 60 15.4 68 68 SE 10 17 29.93 1014 10 16.0934 0 0
3:56 am 03:56 Clear 70 21 53 11.6 55 55 SSE 13 20 29.94 1014 10 16.0934 0 0
4:56 am 04:56 Clear 66 18.8 53 11.7 64 64 S 9 15 29.96 1014 10 16.0934 0 0
5:56 am 05:56 Clear 62 16.6 56 13.1 80 80 E 8 13 29.98 1015 10 16.0934 0 0
6:56 am 06:56 undefined N/A N/A N/A SE 9 15 N/A N/A 0 0
7:58 am 07:58 Clear 61 16 56 13.6 86 86 ESE 7 11 29.94 1014 10 16.0934 0 0
8:58 am 08:58 Mostly Clear 61 16.1 57 13.9 87 87 ESE 3 6 29.94 1014 10 16.0934 0 0
9:58 am 09:58 Mostly Cloudy 61 16.3 58 14.3 88 88 S 5 7 29.94 1014 10 16.0934 0 0
10:58 am 10:58 Mostly Cloudy 59 15.2 58 14.2 94 94 E 7 11 29.96 1015 10 16.0934 0 0
11:58 am 11:58 Mostly Cloudy 59 15 57 14 94 94 S 3 6 29.97 1015 10 16.0934 0 0
12:58 pm 12:58 Sunny 62 16.6 59 15.1 91 91 NNE 5 7 29.95 1014 10 16.0934 0 0
1:58 pm 13:58 Cloudy 63 17.4 60 15.8 90 90 E 6 9 29.95 1014 10 16.0934 0 0
2:58 pm 14:58 Cloudy 67 19.5 63 17 86 86 SE 8 13 29.9 1012 10 16.0934 0 0
3:58 pm 15:58 Mostly Cloudy 73 22.5 63 17 71 71 E 6 9 29.85 1011 10 16.0934 0 0
4:58 pm 16:58 Sunny 74 23.4 62 16.9 67 67 ENE 7 11 29.84 1011 10 16.0934 0 0
5:58 pm 17:58 Mostly Sunny 77 24.8 63 17.1 62 62 ESE 8 13 29.8 1009 10 16.0934 0 0
6:58 pm 18:58 Sunny 79 26.1 63 17.1 58 58 ESE 9 15 29.93 1014 10 16.0934 0 0
7:58 pm 19:58 Mostly Cloudy 79 26 62 16.8 57 57 SE 16 26 29.91 1013 10 16.0934 0 0
8:58 pm 20:58 Mostly Sunny 78 25.5 63 17.1 60 60 SE 18 30 29.88 1012 10 16.0934 0 0
9:58 pm 21:58 Mostly Cloudy with Light Rain 74 23.1 63 17.4 70 70 SE 9 15 29.9 1013 10 16.0934 0 0
10:58 pm 22:58 Mostly Cloudy with Thunderstorms 64 17.5 60 15.7 89 89 W 35 56 29.97 1015 6 9.65604 0.06 1.524
11:58 pm 23:58 Mostly Cloudy with Light Rain 65 18.5 60 15.7 84 84 NE 12 19 29.88 1012 10 16.0934 0.27 6.858

Powered by AerisWeather